| time (UTC) | temp F | wind direction | speed MPH | gust MPH | rain 1hr in | rain 24hr in | rain mn in | humidity % | barometer mb |
| 20260902191537 | 63 | 225 | 0.0 | 3.0 | 0.00 | 0.00 | 0.00 | 77 | 1009.5 |
| 20260902190029 | 64 | 237 | 0.0 | 4.0 | 0.00 | 0.00 | 0.00 | 75 | 1009.3 |
| 20260902184530 | 64 | 284 | 0.0 | 3.0 | 0.00 | 0.00 | 0.00 | 72 | 1009.3 |
| 20260902183031 | 65 | 312 | 0.0 | 2.0 | 0.00 | 0.00 | 0.00 | 70 | 1009.2 |
| 20260902181607 | 64 | 313 | 2.0 | 6.0 | 0.00 | 0.00 | 0.00 | 71 | 1009.2 |
| 20260902180030 | 64 | 314 | 1.0 | 5.0 | 0.00 | 0.00 | 0.00 | 70 | 1009.3 |
| 20260902174539 | 64 | 308 | 3.0 | 6.0 | 0.00 | 0.00 | 0.00 | 71 | 1009.4 |
| 20260902173030 | 62 | 294 | 2.0 | 5.0 | 0.00 | 0.00 | 0.00 | 73 | 1009.6 |
| 20260902171607 | 63 | 282 | 3.0 | 7.0 | 0.00 | 0.00 | 0.00 | 70 | 1009.7 |
| 20260902170032 | 63 | 291 | 2.0 | 6.0 | 0.00 | 0.00 | 0.00 | 72 | 1009.8 |
| 20260902163030 | 63 | 90 | 0.0 | 4.0 | 0.00 | 0.00 | 0.00 | 74 | 1010.2 |
| 20260902161530 | 62 | 77 | 0.0 | 3.0 | 0.00 | 0.00 | 0.00 | 76 | 1010.4 |
| 20260902154529 | 61 | 315 | 0.0 | 0.0 | 0.00 | 0.00 | 0.00 | 82 | 1010.8 |
| 20260902153029 | 59 | 16 | 0.0 | 2.0 | 0.00 | 0.00 | 0.00 | 85 | 1010.9 |
| 20260902150031 | 56 | 74 | 0.0 | 3.0 | 0.00 | 0.00 | 0.00 | 89 | 1011.3 |
| 20260902144531 | 56 | 299 | 0.0 | 2.0 | 0.00 | 0.00 | 0.00 | 90 | 1011.3 |
| 20260902141530 | 53 | 36 | 0.0 | 1.0 | 0.00 | 0.00 | 0.00 | 91 | 1011.7 |
| 20260902131534 | 50 | 143 | 2.0 | 5.0 | 0.00 | 0.00 | 0.00 | 89 | 1011.8 |
| 20260902124533 | 51 | 138 | 0.0 | 4.0 | 0.00 | 0.00 | 0.00 | 87 | 1011.8 |
| 20260902123032 | 53 | 127 | 1.0 | 4.0 | 0.00 | 0.00 | 0.00 | 85 | 1011.9 |
| 20260902121532 | 54 | 161 | 0.0 | 3.0 | 0.00 | 0.00 | 0.00 | 84 | 1011.9 |
| 20260902120030 | 55 | 267 | 1.0 | 5.0 | 0.00 | 0.00 | 0.00 | 82 | 1011.9 |
| 20260902114608 | 56 | 286 | 2.0 | 7.0 | 0.00 | 0.00 | 0.00 | 81 | 1012.0 |
| 20260902113030 | 56 | 308 | 3.0 | 7.0 | 0.00 | 0.00 | 0.00 | 81 | 1012.1 |
| 20260902110031 | 57 | 309 | 5.0 | 10.0 | 0.00 | 0.00 | 0.00 | 81 | 1012.1 |
| 20260902103032 | 56 | 316 | 4.0 | 8.0 | 0.00 | 0.00 | 0.00 | 84 | 1012.3 |
| 20260902100032 | 56 | 299 | 2.0 | 6.0 | 0.00 | 0.00 | 0.00 | 85 | 1012.4 |
| 20260902094530 | 56 | 294 | 1.0 | 5.0 | 0.00 | 0.00 | 0.00 | 84 | 1012.4 |
| 20260902091532 | 56 | 258 | 1.0 | 5.0 | 0.00 | 0.00 | 0.00 | 84 | 1012.7 |
| 20260902084531 | 57 | 241 | 0.0 | 3.0 | 0.00 | 0.00 | 0.00 | 83 | 1012.6 |
| 20260902083106 | 57 | 281 | 2.0 | 9.0 | 0.00 | 0.00 | 0.00 | 82 | 1012.6 |
| 20260902081536 | 57 | 270 | 0.0 | 4.0 | 0.00 | 0.00 | 0.00 | 81 | 1012.6 |
| 20260902080030 | 58 | 247 | 1.0 | 6.0 | 0.00 | 0.00 | 0.00 | 80 | 1012.7 |
| 20260902073036 | 59 | 295 | 4.0 | 10.0 | 0.00 | 0.00 | 0.00 | 78 | 1012.8 |
| 20260902070030 | 61 | 279 | 3.0 | 8.0 | 0.00 | 0.00 | 0.00 | 76 | 1013.1 |
| 20260902064538 | 61 | 278 | 3.0 | 9.0 | 0.00 | 0.00 | 0.00 | 75 | 1013.2 |
| 20260902063036 | 61 | 289 | 5.0 | 12.0 | 0.00 | 0.00 | 0.00 | 74 | 1013.2 |
| 20260902060031 | 62 | 301 | 6.0 | 16.0 | 0.00 | 0.00 | 0.00 | 73 | 1013.2 |
| 20260902054535 | 62 | 294 | 6.0 | 14.0 | 0.00 | 0.00 | 0.00 | 72 | 1013.2 |
| 20260902051535 | 62 | 305 | 5.0 | 14.0 | 0.00 | 0.00 | 0.00 | 72 | 1013.1 |
| 20260902050029 | 62 | 282 | 3.0 | 9.0 | 0.00 | 0.00 | 0.00 | 71 | 1012.9 |
| 20260902044530 | 62 | 289 | 5.0 | 15.0 | 0.00 | 0.00 | 0.00 | 71 | 1012.7 |
| 20260902043035 | 63 | 302 | 6.0 | 16.0 | 0.00 | 0.00 | 0.00 | 71 | 1012.6 |
| 20260902041530 | 63 | 301 | 5.0 | 13.0 | 0.00 | 0.00 | 0.00 | 71 | 1012.4 |
| 20260902040029 | 63 | 307 | 7.0 | 15.0 | 0.00 | 0.00 | 0.00 | 71 | 1012.3 |
| 20260902034536 | 61 | 294 | 4.0 | 11.0 | 0.00 | 0.00 | 0.00 | 73 | 1012.2 |
| 20260902031608 | 62 | 271 | 0.0 | 3.0 | 0.00 | 0.00 | 0.00 | 72 | 1012.1 |
| 20260902030107 | 63 | 247 | 2.0 | 7.0 | 0.00 | 0.00 | 0.00 | 71 | 1012.2 |
| 20260902024530 | 63 | 280 | 5.0 | 12.0 | 0.00 | 0.00 | 0.00 | 70 | 1012.1 |
| 20260902023030 | 64 | 299 | 6.0 | 12.0 | 0.00 | 0.00 | 0.00 | 69 | 1011.8 |
| 20260902021537 | 64 | 301 | 6.0 | 15.0 | 0.00 | 0.00 | 0.00 | 67 | 1011.8 |
| 20260902020030 | 65 | 297 | 6.0 | 16.0 | 0.00 | 0.00 | 0.00 | 65 | 1011.7 |
| 20260902014529 | 66 | 299 | 7.0 | 22.0 | 0.00 | 0.00 | 0.00 | 63 | 1011.6 |
| 20260902013033 | 67 | 300 | 8.0 | 17.0 | 0.00 | 0.00 | 0.00 | 63 | 1011.5 |
| 20260902011529 | 66 | 296 | 7.0 | 15.0 | 0.00 | 0.00 | 0.00 | 63 | 1011.4 |
| 20260902010038 | 67 | 303 | 7.0 | 17.0 | 0.00 | 0.00 | 0.00 | 62 | 1011.3 |
| 20260902003037 | 66 | 308 | 9.0 | 20.0 | 0.00 | 0.00 | 0.00 | 63 | 1011.0 |
| 20260902001538 | 67 | 309 | 11.0 | 23.0 | 0.00 | 0.00 | 0.00 | 63 | 1010.9 |
| 20260902000037 | 66 | 306 | 8.0 | 20.0 | 0.00 | 0.00 | 0.00 | 64 | 1011.0 |
| 20260901234530 | 66 | 308 | 10.0 | 21.0 | 0.00 | 0.00 | 0.00 | 64 | 1011.1 |
| 20260901233058 | 67 | 307 | 10.0 | 23.0 | 0.00 | 0.00 | 0.00 | 63 | 1011.0 |
| 20260901231531 | 67 | 308 | 10.0 | 22.0 | 0.00 | 0.00 | 0.00 | 64 | 1011.0 |
| 20260901224533 | 68 | 301 | 11.0 | 28.0 | 0.00 | 0.00 | 0.00 | 62 | 1011.0 |
| 20260901223042 | 69 | 303 | 12.0 | 28.0 | 0.00 | 0.00 | 0.00 | 61 | 1010.7 |
| 20260901221535 | 69 | 302 | 11.0 | 25.0 | 0.00 | 0.00 | 0.00 | 60 | 1010.6 |
| 20260901220036 | 69 | 300 | 10.0 | 21.0 | 0.00 | 0.00 | 0.00 | 61 | 1010.5 |
| 20260901214537 | 69 | 304 | 11.0 | 23.0 | 0.00 | 0.00 | 0.00 | 62 | 1010.4 |
| 20260901213030 | 68 | 310 | 10.0 | 28.0 | 0.00 | 0.00 | 0.00 | 62 | 1010.5 |
| 20260901211536 | 67 | 313 | 12.0 | 24.0 | 0.00 | 0.00 | 0.00 | 63 | 1010.6 |
| 20260901210037 | 67 | 299 | 12.0 | 25.0 | 0.00 | 0.00 | 0.00 | 63 | 1010.7 |
| 20260901204537 | 68 | 292 | 10.0 | 25.0 | 0.00 | 0.00 | 0.00 | 63 | 1010.8 |
| 20260901203036 | 67 | 296 | 11.0 | 25.0 | 0.00 | 0.00 | 0.00 | 63 | 1010.9 |
| 20260901201538 | 68 | 299 | 10.0 | 25.0 | 0.00 | 0.00 | 0.00 | 63 | 1011.0 |
| 20260901200037 | 67 | 305 | 8.0 | 20.0 | 0.00 | 0.00 | 0.00 | 64 | 1011.1 |
| 20260901194533 | 67 | 308 | 9.0 | 19.0 | 0.00 | 0.00 | 0.00 | 65 | 1011.3 |
| 20260901193030 | 67 | 311 | 9.0 | 18.0 | 0.00 | 0.00 | 0.00 | 65 | 1011.7 |